[Iaude] MPEC E36: 2024 EU [a=1.28,e=0.10,i=22.1,H=23.8]
    mpec at cfa.harvard.edu 
    mpec at cfa.harvard.edu
       
    Mon Mar  4 08:10:08 EST 2024
    
    
  
M.P.E.C. 2024-E36                                 Issued 2024 March 4, 13:08 UT
     The Minor Planet Electronic Circulars contain information on unusual
         minor planets, routine data on comets and natural satellites,
         and occasional editorial announcements.  They are published
    on behalf of Division F of the International Astronomical Union by the
          Minor Planet Center, Smithsonian Astrophysical Observatory,
                          Cambridge, MA 02138, U.S.A.
			  
             Prepared using the Tamkin Foundation Computer Network
                              MPC at CFA.HARVARD.EDU
            URL https://www.minorplanetcenter.net/    ISSN 1523-6714
                                    2024 EU                                     
Observations:
     K24E00U* C2024 03 02.32993210 45 37.563+18 43 23.57         21.06wXEE036F51
     K24E00U  C2024 03 02.34221510 45 37.742+18 44 48.38         21.28wXEE036F51
     K24E00U  C2024 03 02.35452210 45 37.926+18 46 13.72         21.00wXEE036F51
     K24E00U KC2024 03 02.42144210 45 36.659+18 53 40.92         20.89GVEE036I52
     K24E00U KC2024 03 02.42285510 45 36.698+18 53 50.75         21.50GVEE036I52
     K24E00U KC2024 03 02.42427010 45 36.727+18 54 00.50         20.92GVEE036I52
     K24E00U  C2024 03 02.46001010 45 39.203+18 58 16.20         20.96GVEE036F52
     K24E00U  C2024 03 02.46065810 45 39.189+18 58 20.66         21.36GVEE036F52
     K24E00U KC2024 03 03.24182710 46 05.048+20 26 08.77         20.89GVEE036I52
     K24E00U KC2024 03 03.24380110 46 05.084+20 26 22.34         21.17GVEE036I52
     K24E00U KC2024 03 03.24577510 46 05.066+20 26 35.45         21.16GVEE036I52
     K24E00U KC2024 03 03.24775210 46 05.099+20 26 49.09         21.28GVEE036I52
     K24E00U KB2024 03 04.07586310 46 28.88 +21 57 44.1          20.8 GXEE036I93
     K24E00U KB2024 03 04.08502110 46 29.04 +21 58 43.0          20.8 GXEE036I93
     K24E00U KB2024 03 04.09417010 46 29.19 +21 59 42.7          20.6 GXEE036I93
Observer details:
F51 Pan-STARRS 1, Haleakala.  Observers J. Herman, T. Lowe, P. Minguez, A.
    Schultz, I. Smith.  Measurers K. Chambers, T. de Boer, J. Fairlamb, H.
    Gao, M. Huber, C.-C. Lin, E. Magnier, Y. Ramanjooloo, R. Wainscoat, R.
    Weryk.  1.8-m Ritchey-Chretien + CCD.
F52 Pan-STARRS 2, Haleakala.  Observers J. Herman, T. Lowe, P. Minguez, A.
    Schultz, I. Smith.  Measurers K. Chambers, T. de Boer, J. Fairlamb, H.
    Gao, M. Huber, C.-C. Lin, E. Magnier, Y. Ramanjooloo, R. Wainscoat, R.
    Weryk.  1.8-m Ritchey-Chretien + CCD.
I52 Steward Observatory, Mt. Lemmon Station.  Observers T. Beuden, R. A.
    Kowalski, J. K. Hogan.  Measurers T. Beuden, V. F. Carvajal, D. Fay, J. B.
    Fazekas, D. C. Fuls, A. R. Gibbs, A. D. Grauer, H. Groeller, J. K. Hogan,
    R. A. Kowalski, S. M. Larson, G. J. Leonard, D. Rankin, R. L. Seaman, F.
    C. Shelly, K. W. Wierzchos.  1.0-m prime focus + CCD.
I93 St Pardon de Conques.  Observer F. Losse.  0.40-m f/3.7 reflector + CCD.
Orbital elements:
2024 EU                                                  Earth MOID = 0.1800 AU
Epoch 2024 Mar. 31.0 TT = JDT 2460400.5                 Veres                   
M  52.41165              (2000.0)            P               Q                  
n   0.68360519     Peri.  324.71762     -0.54201793     -0.82742180             
a   1.2762404      Node   156.98197     +0.83119812     -0.55360353             
e   0.0974468      Incl.   22.07200     +0.12379924     +0.09432017             
P   1.44           H   23.86          G   0.15           U   8                  
Residuals in seconds of arc
240302 F51  0.1+  0.1-    240302 I52  0.1+  0.7+    240303 I52  0.3-  0.1-
240302 F51  0.0   0.1-    240302 F52  0.0   0.2-    240303 I52  0.2-  0.3+
240302 F51  0.1+  0.4+    240302 F52  0.3-  0.2-    240304 I93  0.1+  0.0
240302 I52  0.2-  0.3+    240303 I52  0.3+  0.3-    240304 I93  0.0   0.4-
240302 I52  0.1+  0.5+    240303 I52  0.4+  0.1+    240304 I93  0.3-  0.1+
Ephemeris:
2024 EU                  a,e,i = 1.28, 0.10, 22                  q = 1.1519
Date    TT    R. A. (2000) Decl.     Delta      r    Elong.  Phase     V
2024 02 03    10 27 36.8 -28 55 34   0.2424  1.1560   129.9    40.8    22.7
...
2024 02 18    10 38 30.1 -08 01 16   0.1879  1.1646   158.1    18.5    21.5
...
2024 02 26    10 42 51.8 +08 03 03   0.1812  1.1709   177.4     2.2    20.7
...
2024 03 03    10 45 56.3 +19 59 13   0.1894  1.1764   166.6    11.2    21.3
2024 03 04    10 46 27.5 +21 49 43   0.1918  1.1774   164.3    13.2    21.4
2024 03 05    10 46 59.1 +23 36 46   0.1944  1.1783   162.0    15.0    21.5
...
2024 03 11    10 50 22.5 +32 57 01   0.2157  1.1846   149.7    25.1    22.1
...
2024 03 19    10 56 00.1 +41 41 10   0.2542  1.1936   136.8    34.8    22.7
...
2024 04 03    11 11 06.6 +49 34 23   0.3421  1.2127   121.1    44.9    23.7
M. P. C. Staff               (C) Copyright 2024 MPC           M.P.E.C. 2024-E36
    
    
More information about the Iaude
mailing list